(389) Industria
ephemeris date magn radius delta ra dec elong phase
Opposition9 Apr 202511.22.438 AU1.453 AU12h54m-20°34'166.4°5.6°
Today19 Apr 202511.32.439 AU1.461 AU12h46m-19°33'163.0°6.9°
(389) Industria - 2025-04-19
astro.vanbuitenen.nl


 
-1 year
-1 month
-1 day
Now
+1 day
+1 month
+1 year

The interactive orbit chart above shows the body's path through the solar system and its position at the given date. Green and blue lines are shown perpendicular to the ecliptic plane: Green if the path is above the ecliptic plane, blue if it is below. (Left-click and drag to rotate the view; Right-click and drag to move the view; Use scroll wheel to zoom in our out.)

The orbital elements of Industria are:

            e (Eccentricity)                : 0.0662808
            a (Semimajor axis)              : 2.6080366
            i (Inclination)                 : 8.12337
            Ω (Longitude of ascending node) : 282.02288
            ω (Argument of perihelion)      : 267.84969
            M (Mean anomaly)                : 14.88257
            Epoch                           : 2025 May 05

            L (Longitude of perihelion)     : 9.85080
            B (Latitude of perihelion)      : -8.11761
            P (Orbital period in years)     : 4.21            
        

The light curve chart below shows the estimated development of the minor planet's magnitude.


The all-sky chart below shows the path of the minor planet over the same period as the light curve. The current position is marked yellow.





The following chart shows the path of the minor planet in the next few days. The field of view is optimized for (~10x50) binoculars and finderscopes. A more printer-friendly version of the same chart can be found below.




Ephemerides:
Date       Time       RA (2000)    DEC (2000)    delta   radius  elong  phase   PA    magn
2025-04-19 00:00 UT   12 46 19.2   -19 33 44     1.461    2.439  163.0    6.9    62   11.3 
2025-04-19 21:41 UT   12 45 36.5   -19 27 29     1.463    2.439  162.4    7.2    65   11.3 
2025-04-20 00:00 UT   12 45 32.0   -19 26 48     1.463    2.439  162.3    7.2    65   11.3 
2025-04-21 00:00 UT   12 44 45.7   -19 19 48     1.465    2.439  161.5    7.5    68   11.3 
2025-04-22 00:00 UT   12 44 00.4   -19 12 45     1.468    2.439  160.7    7.8    71   11.3 
2025-04-23 00:00 UT   12 43 16.2   -19 05 37     1.471    2.440  159.9    8.1    74   11.3 
2025-04-24 00:00 UT   12 42 33.1   -18 58 28     1.474    2.440  159.0    8.5    76   11.3 
2025-04-25 00:00 UT   12 41 51.2   -18 51 16     1.477    2.440  158.1    8.8    78   11.4 
2025-04-26 00:00 UT   12 41 10.5   -18 44 02     1.481    2.440  157.2    9.2    80   11.4 
2025-04-27 00:00 UT   12 40 31.0   -18 36 48     1.485    2.440  156.3    9.5    82   11.4 
2025-04-28 00:00 UT   12 39 52.9   -18 29 33     1.489    2.440  155.3    9.9    83   11.4 
2025-04-29 00:00 UT   12 39 16.2   -18 22 18     1.493    2.441  154.4   10.3    85   11.4 
2025-04-30 00:00 UT   12 38 40.9   -18 15 05     1.498    2.441  153.4   10.6    86   11.5 
2025-05-01 00:00 UT   12 38 07.0   -18 07 52     1.503    2.441  152.4   11.0    88   11.5 
2025-05-02 00:00 UT   12 37 34.6   -18 00 42     1.508    2.441  151.5   11.4    89   11.5 
2025-05-03 00:00 UT   12 37 03.8   -17 53 33     1.513    2.441  150.5   11.7    90   11.5 
2025-05-04 00:00 UT   12 36 34.4   -17 46 28     1.519    2.442  149.5   12.1    91   11.6 
2025-05-05 00:00 UT   12 36 06.7   -17 39 26     1.524    2.442  148.5   12.5    92   11.6 
2025-05-06 00:00 UT   12 35 40.5   -17 32 28     1.530    2.442  147.5   12.8    93   11.6 
2025-05-07 00:00 UT   12 35 15.9   -17 25 35     1.536    2.442  146.5   13.2    94   11.6 
2025-05-08 00:00 UT   12 34 53.0   -17 18 45     1.543    2.442  145.5   13.5    95   11.6 
2025-05-09 00:00 UT   12 34 31.7   -17 12 01     1.549    2.443  144.5   13.9    96   11.7 
2025-05-10 00:00 UT   12 34 12.0   -17 05 23     1.556    2.443  143.5   14.2    97   11.7 
2025-05-11 00:00 UT   12 33 54.0   -16 58 50     1.563    2.443  142.6   14.6    97   11.7 
2025-05-12 00:00 UT   12 33 37.6   -16 52 24     1.570    2.443  141.6   14.9    98   11.7 
2025-05-13 00:00 UT   12 33 23.0   -16 46 04     1.577    2.444  140.6   15.2    99   11.8 
2025-05-14 00:00 UT   12 33 10.0   -16 39 50     1.585    2.444  139.6   15.5    99   11.8 
2025-05-15 00:00 UT   12 32 58.7   -16 33 44     1.592    2.444  138.6   15.9   100   11.8 
2025-05-16 00:00 UT   12 32 49.0   -16 27 45     1.600    2.444  137.7   16.2   100   11.8 
2025-05-17 00:00 UT   12 32 41.1   -16 21 54     1.608    2.445  136.7   16.5   101   11.8 
2025-05-18 00:00 UT   12 32 34.8   -16 16 10     1.616    2.445  135.7   16.8   101   11.9 
2025-05-19 00:00 UT   12 32 30.2   -16 10 35     1.625    2.445  134.8   17.1   102   11.9 


    Terminology:
            
    delta:  distance between minor planet and earth in AU
    radius: distance between minor planet and sun in AU
    magn:   magnitude (brightness) estimate    
    ra:     right ascension in hours (24h = 360deg)
    dec:    declination in degrees
    elong:  elongation in degrees (angle sun-earth-minor planet)    
    phase:  phase angle in degrees (angle sun-minor planet-earth)        
    AU:     Astronomical Unit (mean distance between earth and sun: 149597870.7 km
    

Orbital elements provided by the MPC (Minor Planet Center).
Calculations by a modified version of AAPlus, a C# implementation of the AA+ project by PJ Naughter from the algorithms presented in the book "Astronomical Algorithms" by Jean Meeus.
NGC2000 dso catalog and star labels from VizieR as provided by the Strasbourg astronomical Data Center.
Tycho2 catalog from the ESO archive.